Location: Dehesa de la Cepeda
(40.6574°N, 4.3013°W)
Time: 19:49:51
(UTC+00:00)

ATLAS 5 CENTAUR R/B - Pass Details

Date: 05 July 2020
Orbit: 534 x 1124 km, 63.4° (Epoch: 03 August)

Event Time Altitude Azimuth Distance (km) Brightness Sun altitude
Rises 21:02:13 0° 215° (SW) 2,673 4.7 -11.5°
Reaches altitude 10° 21:04:20 10° 216° (SW) 1,806 3.9 -11.8°
Maximum altitude 21:08:19 83° 302° (WNW) 584 1.5 -12.3°
Drops below altitude 10° 21:12:48 10° 33° (NNE) 2,009 4.3 -12.9°
Sets 21:15:15 0° 34° (NE) 3,005 5.2 -13.2°
